Regional Weather Roundup
Issued by NWS Midland/Odessa, TX

Skip options and go directly to product.
Home | Oldest Version | Previous Version | Current Version | All | Graphics & Text | Save Text | Print | Product List | Glossary On

Skip product version selection by date and time.   
396
ASUS44 KMAF 231110
RWRMAF
MIDLAND AREA WEATHER ROUNDUP
NATIONAL WEATHER SERVICE MIDLAND TX
600 AM CDT WED APR 23 2014

...IN SOUTHWEST TEXAS AND SOUTHEAST NEW MEXICO...

CITY           SKY/WX    TMP DP  RH WIND       PRES   REMARKS
ALPINE         MOCLDY    65  47  52 S10       29.97S
ANDREWS        FAIR      63  49  59 SE10      29.87S
ARTESIA        CLOUDY    64  46  52 S16       29.81R
BIG SPRING     MOCLDY    66  49  53 SE21G26   29.89S
CARLSBAD       CLOUDY    63  45  51 S9        29.79F
DRYDEN           N/A     69  53  56 CALM      29.86R
FORT STOCKTON  PTCLDY    67  51  56 S23G33    29.82F
GUAD PASS      PTCLDY    63  42  46 SW12      29.93F
HOBBS          NOT AVBL
MARFA          PTCLDY    55  45  67 SE5       29.96S
MIDLAND AIRPK  MOCLDY    67  50  54 SE16      29.86F
MIDLAND INTL   PTCLDY    66  50  56 SE15      29.86F
ODESSA           N/A    N/A N/A N/A MISG      29.86S
PECOS          MOCLDY    63  54  72 E12       29.79S
PRESIDIO       FAIR      72  49  44 NE6       29.82S
SEMINOLE       MOCLDY    63  48  59 SE7       29.88S
SNYDER         CLEAR     63  51  64 SE14      29.88F
WINK           CLOUDY    68  51  54 SE14      29.81S
$$
...OTHER STATIONS IN TEXAS...

CITY           SKY/WX    TMP DP  RH WIND       PRES   REMARKS
ABILENE        CLEAR     62  53  72 SE10      29.90S
AMARILLO       PTCLDY    59  42  53 S16       29.86S
AUSTIN         CLEAR     53  53 100 CALM      29.92S
BROWNSVILLE    CLEAR     68  68 100 SE5       29.88S
CORPUS CHRISTI MOCLDY    70  67  90 S6        29.90S
DALLAS FTW     CLEAR     62  56  80 SE3       29.90F
DEL RIO        CLEAR     71  61  70 E12       29.85S
EL PASO        MOCLDY    74  23  15 W14G22    29.84R
HOUSTON INT    PTCLDY    65  64  97 CALM      29.93S
LUBBOCK        MOCLDY    61  46  57 S14       29.87F
SAN ANGELO     CLEAR     67  56  67 S14       29.86F
SAN ANTONIO    PTCLDY    66  62  87 CALM      29.92S
WACO           CLEAR     56  54  93 CALM      29.93R
WICHITA FALLS  NOT AVBL
$$
...OTHER LOCATIONS IN NEW MEXICO...

CITY           SKY/WX    TMP DP  RH WIND       PRES   REMARKS
ALAMAGORDO     PTCLDY    63  32  31 S8        29.85R
ALBUQUERQUE    CLOUDY    59  29  31 SE3       29.84F
CANNON AFB     CLOUDY    60  42  52 S15G23    29.84F
CLOVIS         CLOUDY    59  43  55 S14       29.87F
HOLLOMAN AFB   PTCLDY    68  31  25 SW10      29.82R
ROSWELL        CLOUDY    64  45  49 S13       29.79F
RUIDOSO        PTCLDY    52  32  46 S12       29.97R
SANTA FE       MOCLDY    52  30  43 CALM      29.87S
TRUTH OR CONSE PTCLDY    60  26  27 S6        29.83S
TUCUMCARI      PTCLDY    63  41  44 S21       29.77F
$$

USA.gov is the U.S. government's official web portal to all federal, state and local government web resources and services.